This is the latest recevied weather packets stored in our database for station/object K5OLV. If no packets are shown the sender has not sent any weather packets the latest 10 day(s).
| Time | Temp. | Humidity | Pressure | Rain* | Wind** | Luminosity | Snow |
|---|---|---|---|---|---|---|---|
| 1788385579 | 29.44° C | 75% | 1016.4 hPa | 0 mm | - | 75 W/m² | - |
| 1788385278 | 30.56° C | 73% | 1016.4 hPa | 0 mm | - | 62 W/m² | - |
| 1788384974 | 31.11° C | 66% | 1016.5 hPa | 0 mm | - | 61 W/m² | - |
| 1788384673 | 32.78° C | 65% | 1016.5 hPa | 0 mm | - | 194 W/m² | - |
| 1788384369 | 33.33° C | 56% | 1016.5 hPa | 0 mm | - | 95 W/m² | - |
| 1788384065 | 33.89° C | 54% | 1016.5 hPa | 0 mm | - | 227 W/m² | - |
| 1788383761 | 33.89° C | 55% | 1016.5 hPa | 0 mm | - | 394 W/m² | - |
| 1788383456 | 34.44° C | 53% | 1016.5 hPa | 0 mm | - | 397 W/m² | - |
| 1788383150 | 33.33° C | 53% | 1016.6 hPa | 0 mm | - | 451 W/m² | - |
| 1788382850 | 33.33° C | 54% | 1016.6 hPa | 0 mm | - | 454 W/m² | - |
| 1788382568 | 33.89° C | 53% | 1016.7 hPa | 0 mm | - | 440 W/m² | - |
| 1788382245 | 35° C | 52% | 1016.5 hPa | 0 mm | - | 481 W/m² | - |
| 1788381944 | 35° C | 52% | 1016.8 hPa | 0 mm | - | 488 W/m² | - |
| 1788381639 | 35° C | 51% | 1016.7 hPa | 0 mm | - | 466 W/m² | - |
| 1788381335 | 36.11° C | 51% | 1016.8 hPa | 0 mm | - | 422 W/m² | - |
| 1788381034 | 36.11° C | 49% | 1016.6 hPa | 0 mm | - | 494 W/m² | - |
| 1788380730 | 36.11° C | 49% | 1016.6 hPa | 0 mm | - | 498 W/m² | - |
| 1788380426 | 35.56° C | 51% | 1016.8 hPa | 0 mm | - | 534 W/m² | - |
| 1788380121 | 35.56° C | 49% | 1017 hPa | 0 mm | - | 562 W/m² | - |
| 1788379815 | 34.44° C | 50% | 1016.8 hPa | 0 mm | - | 540 W/m² | - |
| 1788379510 | 33.33° C | 53% | 1016.8 hPa | 0 mm | - | 528 W/m² | - |
| 1788379219 | 34.44° C | 52% | 1016.9 hPa | 0 mm | - | 607 W/m² | - |
| 1788378902 | 34.44° C | 51% | 1017.1 hPa | 0 mm | - | 600 W/m² | - |
| 1788378601 | 34.44° C | 53% | 1017.2 hPa | 0 mm | - | 620 W/m² | - |
| 1788378295 | 33.89° C | 55% | 1017.1 hPa | 0 mm | - | 639 W/m² | - |
* Rain latest hour (hover to see other rain measurements)
** Current wind speed in m/s (hover to see current wind gust speed)